Tracking 35334 objects as of 12-Sep-2026
HD Live streaming from Space Station
objects crossing your sky now

COSMOS 1408 DEB


COSMOS 1408 DEB is no longer on orbit


NORAD ID: 52247
Int'l Code: 1982-092BXF
Launch date: September 16, 1982
Source: Commonwealth of Independent States (former USSR) (CIS)
Launch site: PLESETSK MISSILE AND SPACE COMPLEX (PKMTR)
Decay date: 2022-04-26

Note: This is SATELLITE DEBRIS
Your satellite tracking list
Your tracking list is empty




NASA's NSSDC Master Catalog

Two Line Element Set (TLE):
1 52247U 82092BXF 22115.33977255  .05612521  69983-1  18246-1 0  9993
2 52247  83.0054 333.9762 0030361 253.9667 105.8266 15.96657337  7407
Source of the keplerian elements: AFSPC